EW2318 Weather Reports


Display with metric or nautical units.
time (UTC)temp
F
wind
direction
speed
MPH
gust
MPH
rain 1hr
in
rain 24hr
in
rain mn
in
humidity
%
barometer
mb
20181120223310 29 41 1.0 5.0 0.00 0.14 0.14 96 1017.7
20181120222810 29 40 0.0 2.0 0.00 0.14 0.14 96 1017.7
20181120222314 28 40 0.0 1.0 0.00 0.14 0.14 96 1017.7
20181120221809 28 40 0.0 0.0 0.00 0.14 0.14 95 1017.7
20181120221310 28 40 0.0 1.0 0.00 0.14 0.14 95 1017.7
20181120220813 28 40 0.0 2.0 0.00 0.14 0.14 95 1017.7
20181120220309 28 40 0.0 2.0 0.00 0.14 0.14 95 1017.7
20181120215810 28 40 0.0 1.0 0.00 0.14 0.14 95 1017.7
20181120215314 28 40 0.0 2.0 0.00 0.14 0.14 95 1017.7
20181120214809 28 40 1.0 5.0 0.00 0.14 0.14 95 1017.7
20181120214310 28 40 0.0 3.0 0.00 0.14 0.14 95 1017.6
20181120213813 28 40 0.0 3.0 0.00 0.14 0.14 95 1017.7
20181120213310 28 36 0.0 1.0 0.00 0.14 0.14 95 1017.6
20181120212810 28 37 1.0 3.0 0.00 0.14 0.14 95 1017.6
20181120212314 28 36 0.0 1.0 0.00 0.14 0.14 95 1017.6
20181120211809 28 36 1.0 5.0 0.00 0.14 0.14 95 1017.6
20181120211310 28 36 0.0 3.0 0.00 0.14 0.14 96 1017.6
20181120210813 28 36 0.0 3.0 0.00 0.14 0.14 96 1017.6
20181120210310 28 36 0.0 3.0 0.00 0.14 0.14 96 1017.6
20181120205810 28 36 0.0 2.0 0.00 0.14 0.14 96 1017.6
20181120205313 28 36 0.0 3.0 0.00 0.14 0.14 96 1017.5
20181120204810 28 34 0.0 3.0 0.00 0.14 0.14 96 1017.5
20181120204310 28 34 0.0 0.0 0.00 0.14 0.14 96 1017.4
20181120203814 28 34 0.0 2.0 0.00 0.14 0.14 96 1017.3
20181120203310 28 34 0.0 3.0 0.00 0.14 0.14 95 1017.4
20181120202810 28 34 0.0 3.0 0.00 0.14 0.14 95 1017.2
20181120202314 28 34 0.0 3.0 0.00 0.14 0.14 95 1017.2
20181120201810 28 34 0.0 2.0 0.00 0.14 0.14 95 1017.2
20181120201310 28 34 0.0 1.0 0.00 0.14 0.14 95 1017.2
20181120200814 28 34 1.0 3.0 0.00 0.14 0.14 95 1017.2
20181120200310 28 30 0.0 0.0 0.00 0.14 0.14 95 1017.1
20181120195810 28 32 1.0 3.0 0.00 0.14 0.14 95 1017.1
20181120195313 28 45 1.0 5.0 0.00 0.14 0.14 95 1017.1
20181120194810 28 57 1.0 6.0 0.00 0.14 0.14 95 1017.1
20181120194310 28 59 0.0 3.0 0.00 0.14 0.14 95 1017.1
20181120193814 28 59 0.0 3.0 0.00 0.14 0.14 95 1017.1
20181120193310 28 59 1.0 5.0 0.00 0.14 0.14 95 1017.1
20181120192810 28 57 1.0 7.0 0.01 0.14 0.14 95 1017.1
20181120192313 28 54 0.0 5.0 0.01 0.14 0.14 95 1017.1
20181120191811 28 54 0.0 3.0 0.01 0.14 0.14 95 1017.1
20181120191309 28 54 0.0 3.0 0.01 0.14 0.14 95 1017.0
20181120190813 28 58 0.0 6.0 0.01 0.14 0.14 95 1017.1
20181120190310 28 59 2.0 8.0 0.01 0.14 0.14 95 1017.0
20181120185810 28 39 1.0 3.0 0.02 0.14 0.14 95 1017.0
20181120185313 28 40 0.0 6.0 0.02 0.14 0.14 95 1017.0
20181120184810 28 43 0.0 3.0 0.02 0.14 0.14 95 1016.9
20181120184310 27 44 0.0 5.0 0.02 0.14 0.14 95 1016.9
20181120183814 27 42 0.0 3.0 0.02 0.14 0.14 95 1016.9
20181120183310 27 63 0.0 3.0 0.03 0.14 0.14 95 1016.9
20181120182810 27 64 1.0 6.0 0.02 0.13 0.13 95 1017.0
20181120182314 27 53 1.0 8.0 0.03 0.13 0.13 95 1017.0
20181120181810 27 71 0.0 6.0 0.03 0.13 0.13 95 1017.1
20181120181310 27 68 1.0 5.0 0.04 0.13 0.13 95 1017.1
20181120180813 27 63 1.0 6.0 0.05 0.13 0.13 95 1017.1
20181120180311 27 63 1.0 6.0 0.05 0.13 0.13 95 1017.1
20181120175810 27 48 1.0 6.0 0.05 0.13 0.13 95 1017.2
20181120175314 27 30 1.0 3.0 0.06 0.13 0.13 95 1017.2
20181120174810 27 25 0.0 3.0 0.06 0.13 0.13 95 1017.1
20181120174309 27 16 1.0 6.0 0.07 0.12 0.12 95 1017.0
20181120173814 27 42 2.0 7.0 0.09 0.12 0.12 95 1017.1
20181120173310 27 46 2.0 8.0 0.10 0.11 0.11 95 1017.0
20181120172810 27 28 1.0 10.0 0.11 0.11 0.11 96 1017.0
20181120172314 27 21 2.0 6.0 0.10 0.10 0.10 96 1017.1
20181120171810 27 19 1.0 7.0 0.10 0.10 0.10 96 1017.0
20181120171309 27 33 1.0 8.0 0.09 0.09 0.09 96 1017.0
20181120170814 27 37 1.0 7.0 0.09 0.09 0.09 96 1017.0
20181120170310 27 30 0.0 5.0 0.09 0.09 0.09 96 1017.0
20181120165810 27 41 1.0 7.0 0.08 0.08 0.08 96 1016.9
20181120165313 27 36 1.0 6.0 0.07 0.07 0.07 96 1016.9
20181120164810 27 32 3.0 8.0 0.06 0.06 0.06 96 1016.8
20181120164309 27 21 2.0 7.0 0.05 0.05 0.05 96 1016.9
20181120163814 27 36 1.0 6.0 0.02 0.02 0.02 96 1016.9
20181120163309 27 42 2.0 8.0 0.01 0.01 0.01 96 1016.8
20181120162810 27 38 2.0 12.0 0.00 0.00 0.00 96 1016.8
20181120162313 27 43 1.0 5.0 0.00 0.00 0.00 96 1016.8
20181120161810 27 40 1.0 5.0 0.00 0.00 0.00 96 1016.8
20181120161309 27 43 2.0 7.0 0.00 0.00 0.00 96 1016.8
20181120160814 27 39 1.0 5.0 0.00 0.00 0.00 96 1016.8
20181120160310 27 48 2.0 8.0 0.00 0.00 0.00 96 1016.8
20181120155810 27 38 0.0 6.0 0.00 0.00 0.00 96 1016.7
20181120155315 27 38 1.0 7.0 0.00 0.00 0.00 96 1016.7
20181120154810 27 48 1.0 10.0 0.00 0.00 0.00 96 1016.7
20181120154310 27 47 1.0 3.0 0.00 0.00 0.00 96 1016.8
20181120153813 27 38 0.0 3.0 0.00 0.00 0.00 96 1016.7
20181120153310 27 38 1.0 3.0 0.00 0.00 0.00 96 1016.8
20181120152810 27 63 1.0 6.0 0.00 0.00 0.00 96 1016.8
20181120152313 27 33 1.0 6.0 0.00 0.00 0.00 96 1016.7
20181120151810 27 62 1.0 5.0 0.00 0.00 0.00 96 1016.7
20181120151309 27 57 1.0 6.0 0.00 0.00 0.00 96 1016.7
20181120150813 27 37 1.0 6.0 0.00 0.00 0.00 96 1016.7
20181120150310 27 39 1.0 3.0 0.00 0.00 0.00 96 1016.7
20181120145810 27 24 0.0 6.0 0.00 0.00 0.00 96 1016.7
20181120145314 27 37 1.0 8.0 0.00 0.00 0.00 96 1016.8
20181120144810 27 21 2.0 10.0 0.00 0.00 0.00 96 1016.8
20181120144310 27 52 0.0 3.0 0.00 0.00 0.00 96 1016.9
20181120143813 28 55 0.0 5.0 0.00 0.00 0.00 96 1016.9
20181120143310 28 61 1.0 5.0 0.00 0.00 0.00 96 1017.0
20181120142810 28 49 1.0 7.0 0.00 0.00 0.00 96 1017.0
20181120142313 28 48 1.0 5.0 0.00 0.00 0.00 96 1017.0
20181120141809 28 82 1.0 7.0 0.00 0.00 0.00 96 1017.0
20181120141310 28 50 0.0 8.0 0.00 0.00 0.00 96 1017.0
20181120140814 28 61 1.0 8.0 0.00 0.00 0.00 96 1016.9
20181120140310 28 50 1.0 3.0 0.00 0.00 0.00 96 1016.9
20181120135810 28 79 1.0 8.0 0.00 0.00 0.00 96 1017.0
20181120135314 28 58 1.0 12.0 0.00 0.00 0.00 96 1017.0
20181120134810 28 67 0.0 3.0 0.00 0.00 0.00 96 1017.1
20181120134310 28 74 1.0 13.0 0.00 0.00 0.00 96 1017.1
20181120133813 28 89 1.0 8.0 0.00 0.00 0.00 96 1017.2
20181120133310 28 40 1.0 13.0 0.00 0.00 0.00 96 1017.2
20181120132810 28 39 0.0 6.0 0.00 0.00 0.00 96 1017.3
20181120132313 28 52 0.0 7.0 0.00 0.00 0.00 96 1017.3
20181120131810 28 77 2.0 12.0 0.00 0.00 0.00 96 1017.3
20181120131310 28 52 3.0 18.0 0.00 0.00 0.00 96 1017.3
20181120130813 28 83 1.0 6.0 0.00 0.00 0.00 96 1017.3
20181120130310 28 67 1.0 14.0 0.00 0.00 0.00 96 1017.3
20181120125810 28 60 1.0 14.0 0.00 0.00 0.00 96 1017.3
20181120125314 27 33 1.0 13.0 0.00 0.00 0.00 96 1017.4
20181120124810 27 93 2.0 16.0 0.00 0.00 0.00 96 1017.4
20181120124310 27 80 2.0 8.0 0.00 0.00 0.00 96 1017.4
20181120123813 27 80 4.0 12.0 0.00 0.00 0.00 96 1017.3
20181120123310 27 64 5.0 12.0 0.00 0.00 0.00 96 1017.4
20181120122810 27 87 5.0 14.0 0.00 0.00 0.00 96 1017.4
20181120122314 27 77 3.0 12.0 0.00 0.00 0.00 96 1017.4
20181120121811 27 83 2.0 12.0 0.00 0.00 0.00 96 1017.3
20181120121310 27 63 3.0 12.0 0.00 0.00 0.00 96 1017.5
20181120120814 27 52 2.0 14.0 0.00 0.00 0.00 96 1017.4
20181120120310 27 65 2.0 8.0 0.00 0.00 0.00 96 1017.4
20181120115810 27 39 2.0 8.0 0.00 0.00 0.00 96 1017.4
20181120115314 27 101 2.0 10.0 0.00 0.00 0.00 96 1017.5
20181120114809 27 66 3.0 12.0 0.00 0.00 0.00 96 1017.4
20181120114310 27 56 3.0 8.0 0.00 0.00 0.00 96 1017.4
20181120113814 27 60 1.0 7.0 0.00 0.00 0.00 96 1017.5
20181120113310 27 61 2.0 7.0 0.00 0.00 0.00 96 1017.5
20181120112810 27 58 1.0 6.0 0.00 0.00 0.00 96 1017.5
20181120112314 27 77 1.0 12.0 0.00 0.00 0.00 96 1017.7
20181120111809 27 54 1.0 8.0 0.00 0.00 0.00 96 1017.8
20181120111310 27 46 0.0 12.0 0.00 0.00 0.00 96 1017.8
20181120110814 27 38 2.0 10.0 0.00 0.00 0.00 96 1017.9
20181120110310 27 79 3.0 12.0 0.00 0.00 0.00 96 1018.0
20181120105810 27 39 1.0 9.0 0.00 0.00 0.00 96 1018.2
20181120105314 27 48 3.0 13.0 0.00 0.00 0.00 96 1018.3
20181120104811 27 51 2.0 12.0 0.00 0.00 0.00 96 1018.4
20181120104310 27 72 3.0 12.0 0.00 0.00 0.00 96 1018.4
20181120103813 27 41 2.0 10.0 0.00 0.00 0.00 96 1018.3
20181120103310 27 66 2.0 10.0 0.00 0.00 0.00 96 1018.2
20181120102809 27 40 1.0 12.0 0.00 0.00 0.00 96 1018.1
20181120102313 27 71 3.0 8.0 0.00 0.00 0.00 96 1018.3
20181120101810 27 39 2.0 10.0 0.00 0.00 0.00 96 1018.2
20181120101310 27 59 1.0 8.0 0.00 0.00 0.00 96 1018.2
20181120100813 27 61 1.0 9.0 0.00 0.00 0.00 96 1018.2
20181120100310 27 42 1.0 9.0 0.00 0.00 0.00 96 1018.3
20181120095810 27 57 0.0 8.0 0.00 0.00 0.00 96 1018.4
20181120095314 27 33 1.0 7.0 0.00 0.00 0.00 96 1018.5
20181120094809 27 50 1.0 9.0 0.00 0.00 0.00 96 1018.7
20181120094310 27 42 1.0 12.0 0.00 0.00 0.00 96 1018.8
20181120093813 27 51 1.0 8.0 0.00 0.00 0.00 96 1018.8
20181120093310 27 80 2.0 9.0 0.00 0.00 0.00 96 1018.8
20181120092810 27 59 1.0 12.0 0.00 0.00 0.00 96 1018.9
20181120092314 27 69 1.0 8.0 0.00 0.00 0.00 96 1018.8
20181120091810 27 67 1.0 12.0 0.00 0.00 0.00 96 1018.8
20181120091310 27 93 2.0 9.0 0.00 0.00 0.00 96 1018.8
20181120090814 27 61 2.0 8.0 0.00 0.00 0.00 96 1018.8
20181120090310 27 79 1.0 12.0 0.00 0.00 0.00 96 1018.8
20181120085810 27 63 1.0 12.0 0.00 0.00 0.00 96 1018.7
20181120085313 27 89 5.0 13.0 0.00 0.00 0.00 96 1018.7
20181120084810 27 67 3.0 12.0 0.00 0.00 0.00 96 1018.7
20181120084310 27 67 5.0 14.0 0.00 0.00 0.00 96 1018.8
20181120083814 27 87 3.0 13.0 0.00 0.00 0.00 96 1018.7
20181120083310 27 66 3.0 14.0 0.00 0.00 0.00 96 1018.6
20181120082810 27 82 5.0 18.0 0.00 0.00 0.00 96 1018.6
20181120082314 27 74 5.0 13.0 0.00 0.00 0.00 96 1018.5
20181120081810 27 90 3.0 13.0 0.00 0.00 0.00 96 1018.4
20181120081310 27 63 3.0 15.0 0.00 0.00 0.00 96 1018.4
20181120080814 27 93 3.0 20.0 0.00 0.00 0.00 96 1018.4
20181120080310 27 36 2.0 10.0 0.00 0.00 0.00 96 1018.5
20181120075810 27 56 1.0 15.0 0.00 0.00 0.00 96 1018.6
20181120075313 27 64 2.0 12.0 0.00 0.00 0.00 96 1018.7
20181120074810 27 61 1.0 5.0 0.00 0.00 0.00 96 1018.7
20181120074310 27 62 1.0 10.0 0.00 0.00 0.00 96 1018.7
20181120073813 27 67 2.0 7.0 0.00 0.00 0.00 96 1018.9
20181120073311 27 80 2.0 6.0 0.00 0.00 0.00 96 1019.0
20181120072810 27 75 3.0 13.0 0.00 0.00 0.00 96 1019.1
20181120072314 27 58 1.0 12.0 0.00 0.00 0.00 96 1019.0
20181120071810 27 56 2.0 7.0 0.00 0.00 0.00 96 1019.2
20181120071310 27 63 1.0 12.0 0.00 0.00 0.00 96 1019.1
20181120070814 27 85 3.0 15.0 0.00 0.00 0.00 96 1019.3
20181120070310 27 66 1.0 12.0 0.00 0.00 0.00 96 1019.5
20181120065810 27 68 1.0 12.0 0.00 0.00 0.00 96 1019.6
20181120065314 27 83 4.0 14.0 0.00 0.00 0.00 96 1019.8
20181120064810 27 69 3.0 12.0 0.00 0.00 0.00 96 1019.7
20181120064310 27 65 1.0 10.0 0.00 0.00 0.00 96 1019.8
20181120063813 27 72 2.0 12.0 0.00 0.00 0.00 96 1019.7
20181120063310 27 80 3.0 12.0 0.00 0.00 0.00 96 1019.7
20181120062810 27 82 4.0 16.0 0.00 0.00 0.00 96 1019.6
20181120062315 27 69 5.0 13.0 0.00 0.00 0.00 96 1019.7
20181120061810 27 72 6.0 15.0 0.00 0.00 0.00 96 1019.6
20181120061310 27 74 5.0 13.0 0.00 0.00 0.00 96 1019.6
20181120060814 27 79 3.0 12.0 0.00 0.00 0.00 96 1019.9
20181120060310 27 80 2.0 8.0 0.00 0.00 0.00 96 1019.9
20181120055810 27 87 5.0 12.0 0.00 0.00 0.00 96 1020.0
20181120055314 27 76 3.0 12.0 0.00 0.00 0.00 96 1020.0
20181120054810 27 81 4.0 12.0 0.00 0.00 0.00 96 1020.0
20181120054311 27 85 3.0 12.0 0.00 0.00 0.00 96 1019.9
20181120053814 27 79 2.0 8.0 0.00 0.00 0.00 96 1019.9
20181120053310 27 68 2.0 7.0 0.00 0.00 0.00 96 1019.8
20181120052811 27 78 3.0 12.0 0.00 0.00 0.00 96 1019.8
20181120052314 27 83 1.0 6.0 0.00 0.00 0.00 96 1019.8
20181120051810 28 80 1.0 7.0 0.00 0.00 0.00 96 1019.9
20181120051309 27 75 1.0 12.0 0.00 0.00 0.00 96 1020.0
20181120050814 28 73 2.0 6.0 0.00 0.00 0.00 96 1020.0
20181120050310 28 78 3.0 12.0 0.00 0.00 0.00 96 1020.0
20181120045810 28 66 3.0 12.0 0.00 0.00 0.00 96 1019.8
20181120045313 28 75 2.0 12.0 0.00 0.00 0.00 96 1019.9
20181120044810 28 74 6.0 14.0 0.00 0.00 0.00 96 1020.0
20181120044309 28 87 3.0 12.0 0.00 0.00 0.00 95 1019.9
20181120043814 28 84 4.0 13.0 0.00 0.00 0.00 95 1019.9
20181120043309 28 61 3.0 13.0 0.00 0.00 0.00 95 1019.8
20181120042810 28 76 3.0 12.0 0.00 0.00 0.00 95 1019.8
20181120042314 28 96 3.0 12.0 0.00 0.00 0.00 95 1019.9
20181120041810 27 84 4.0 12.0 0.00 0.00 0.00 95 1019.9
20181120041310 27 64 4.0 14.0 0.00 0.00 0.00 95 1019.9
20181120040814 27 86 2.0 12.0 0.00 0.00 0.00 95 1020.0
20181120040310 27 93 5.0 13.0 0.00 0.00 0.00 95 1019.9
20181120035810 28 77 3.0 12.0 0.00 0.00 0.00 95 1020.0
20181120035314 28 73 2.0 13.0 0.00 0.00 0.00 95 1020.0
20181120034810 28 81 5.0 14.0 0.00 0.00 0.00 95 1020.0
20181120034309 28 86 3.0 15.0 0.00 0.00 0.00 95 1020.0
20181120033813 28 77 5.0 18.0 0.00 0.00 0.00 95 1020.0
20181120033310 28 73 5.0 12.0 0.00 0.00 0.00 95 1020.0
20181120032810 28 68 5.0 12.0 0.00 0.00 0.00 95 1020.1
20181120032313 28 78 2.0 12.0 0.00 0.00 0.00 95 1020.0
20181120031810 28 46 1.0 7.0 0.00 0.00 0.00 95 1020.2
20181120031310 28 65 4.0 12.0 0.00 0.00 0.00 94 1020.5
20181120030814 28 54 2.0 12.0 0.00 0.00 0.00 94 1020.5
20181120030310 28 72 6.0 12.0 0.00 0.00 0.00 94 1020.5
20181120025810 28 74 3.0 10.0 0.00 0.00 0.00 94 1020.5
20181120025314 28 68 2.0 12.0 0.00 0.00 0.00 94 1020.3
20181120024810 28 57 1.0 12.0 0.00 0.00 0.00 94 1020.3
20181120024310 28 84 3.0 12.0 0.00 0.00 0.00 94 1020.4
20181120023814 28 96 3.0 12.0 0.00 0.00 0.00 94 1020.3
20181120023310 28 72 3.0 12.0 0.00 0.00 0.00 94 1020.2
20181120022810 28 77 6.0 14.0 0.00 0.00 0.00 94 1020.1
20181120022314 28 67 4.0 13.0 0.00 0.00 0.00 94 1020.2
20181120021810 28 79 3.0 12.0 0.00 0.00 0.00 94 1020.2
20181120021310 28 70 4.0 13.0 0.00 0.00 0.00 94 1020.1
20181120020814 28 79 3.0 15.0 0.00 0.00 0.00 94 1020.1
20181120020310 28 80 3.0 14.0 0.00 0.00 0.00 93 1020.2
20181120015810 28 50 1.0 12.0 0.00 0.00 0.00 93 1020.2
20181120015313 28 67 1.0 6.0 0.00 0.00 0.00 93 1020.4
20181120014810 28 59 2.0 9.0 0.00 0.00 0.00 93 1020.4
20181120014310 28 51 0.0 3.0 0.00 0.00 0.00 93 1020.5
20181120013814 28 45 1.0 7.0 0.00 0.00 0.00 93 1020.5
20181120013310 28 37 1.0 7.0 0.00 0.00 0.00 93 1020.6
20181120012810 28 42 1.0 7.0 0.00 0.00 0.00 93 1020.8
20181120012314 28 52 2.0 10.0 0.00 0.00 0.00 94 1020.7
20181120011809 28 98 2.0 8.0 0.00 0.00 0.00 94 1020.7
20181120011310 28 61 1.0 10.0 0.00 0.00 0.00 94 1020.7
20181120010814 28 53 0.0 5.0 0.00 0.00 0.00 94 1021.3
20181120010310 28 49 1.0 10.0 0.00 0.00 0.00 94 1021.0
20181120005810 28 56 0.0 12.0 0.00 0.00 0.00 94 1021.0
20181120005314 28 68 2.0 10.0 0.00 0.00 0.00 94 1021.2
20181120004809 28 59 1.0 7.0 0.00 0.00 0.00 94 1021.3
20181120004309 28 52 3.0 12.0 0.00 0.00 0.00 94 1021.3
20181120003814 28 60 2.0 12.0 0.00 0.00 0.00 94 1021.4
20181120003310 28 91 1.0 14.0 0.00 0.00 0.00 94 1021.5
20181120002810 28 98 3.0 12.0 0.00 0.00 0.00 94 1021.6
20181120002314 28 71 2.0 8.0 0.00 0.00 0.00 94 1021.6
20181120001810 28 46 2.0 12.0 0.00 0.00 0.00 94 1021.7
20181120001310 28 54 2.0 10.0 0.00 0.00 0.00 95 1021.7
20181120000814 28 64 1.0 8.0 0.00 0.00 0.00 95 1021.8
20181120000310 28 81 3.0 10.0 0.00 0.00 0.00 95 1021.8
20181119235810 28 72 2.0 14.0 0.00 0.00 0.00 95 1021.7
20181119235314 28 44 2.0 10.0 0.00 0.00 0.00 94 1021.7
20181119234810 28 66 3.0 8.0 0.00 0.00 0.00 94 1021.7
20181119234310 28 81 2.0 12.0 0.00 0.00 0.00 94 1021.6
20181119233813 28 88 1.0 12.0 0.00 0.00 0.00 94 1021.7
20181119233310 28 74 1.0 7.0 0.00 0.00 0.00 94 1021.7
20181119232806 28 63 1.0 12.0 0.00 0.00 0.00 94 1021.8
20181119232310 28 75 2.0 12.0 0.00 0.00 0.00 95 1021.8
20181119231805 28 29 1.0 9.0 0.00 0.00 0.00 94 1021.8
20181119231306 28 38 1.0 10.0 0.00 0.00 0.00 94 1021.9
20181119230826 28 81 1.0 8.0 0.00 0.00 0.00 95 1021.9
20181119230306 28 44 1.0 10.0 0.00 0.00 0.00 95 1021.9
20181119225806 28 80 3.0 12.0 0.00 0.00 0.00 95 1022.0
20181119225310 28 47 2.0 9.0 0.00 0.00 0.00 95 1022.2
20181119224806 28 74 1.0 7.0 0.00 0.00 0.00 95 1022.2
20181119224306 28 96 2.0 8.0 0.00 0.00 0.00 95 1022.0
20181119223810 28 46 2.0 9.0 0.00 0.00 0.00 95 1022.2